Location: Cosy Dell
(34.2789°N, 117.4537°W)
Time: 12:18:11
(UTC+00:00)

USA 215 - Pass Details

Date: 14 July 2020
Orbit: 1102 x 1106 km, 123.0° (Epoch: 31 July)

Event Time Altitude Azimuth Distance (km) Brightness Sun altitude
Rises 05:23:08 0° 47° (NE) 3,920 6.2 -23.4°
Reaches altitude 10° 05:25:41 10° 52° (NE) 2,960 5.5 -23.7°
Maximum altitude 05:32:05 56° 129° (SE) 1,292 3.2 -24.5°
Enters shadow 05:33:39 46° 174° (S) 1,448 3.5 -24.7°
